Location: Ponticino
(43.4833°N, 11.7167°E)
Time: 06:58:02
(UTC+00:00)

Daily predictions for brighter satellites

Satellite Brightness Start Highest point End
(mag) Time Altitude Azimuth Time Altitude Azimuth Time Altitude Azimuth
Meteor 2-10 Rocket 4.3 16:10:33 10° SSW 16:15:25 54° WNW 16:20:24 10° N
SMAP 3.2 16:11:55 10° SE 16:16:24 50° ENE 16:20:55 10° N
Cosmos 2219 3.2 16:10:58 10° NNW 16:16:37 85° ENE 16:22:15 10° SSE
Helios 1A Rocket 4.2 16:12:40 10° S 16:16:40 48° W 16:20:43 10° NNW
Okean-O 3.3 16:15:44 10° SE 16:19:40 32° ENE 16:23:36 10° N
CZ-3 Stage 3 4.4 16:11:23 10° W 16:20:42 22° SW 16:24:28 10° SSE
Cosmos 1805 Rocket 3.8 16:16:47 10° N 16:21:00 46° ENE 16:25:13 10° SSE
Cosmos 1743 Rocket 4.0 16:16:56 10° NNW 16:21:16 68° W 16:25:37 10° S
CORIOLIS 4.3 16:17:25 10° SE 16:22:38 52° ENE 16:27:54 10° N
CZ-4B R/B 4.3 16:25:00 10° NNW 16:27:07 16° WNW 16:29:17 10° WSW
Cosmos 1980 Rocket 3.6 16:23:31 10° SE 16:27:20 19° E 16:31:11 10° ENE
Cosmos 2233 Rocket 4.2 16:23:43 10° N 16:30:04 82° W 16:36:20 10° S
Cosmos 1538 Rocket 4.1 16:27:17 10° SSW 16:32:33 88° ESE 16:37:55 10° NNE
Cosmos 2297 Rocket 2.2 16:27:23 10° NNW 16:33:04 77° ENE 16:38:43 10° SSE
USA 215 4.4 16:27:45 10° ENE 16:33:07 28° N 16:38:29 10° NW
Cosmos 2227 Rocket 2.2 16:27:38 10° NNW 16:33:19 72° ENE 16:38:57 10° SSE
Cosmos 1869 3.2 16:31:34 10° S 16:35:29 72° E 16:39:25 10° NNE
NOSS 2-3 (E) 4.3 16:34:45 10° S 16:38:42 36° ESE 16:42:51 11° NE
Meteor 2-20 4.4 16:34:11 10° S 16:40:17 81° E 16:46:28 10° N
USA 229 DEB 3.8 16:34:37 10° SW 16:41:11 80° NW 16:48:05 10° NE
USA 229 3.8 16:34:44 10° SW 16:41:17 80° NW 16:48:10 10° NE
Cosmos 1356 Rocket 3.4 16:38:23 10° S 16:42:31 71° E 16:46:45 10° NNE
Okean O Rocket 4.0 16:40:23 10° SSW 16:44:08 27° W 16:47:53 10° NW
NOSS 3-1 (C) 3.4 16:40:10 10° SW 16:45:40 79° NW 16:52:03 10° NE
NOSS 3-1 (A) 3.3 16:41:02 10° SSW 16:46:27 70° ESE 16:52:42 10° NE
PSLV R/B 3.7 16:45:32 10° W 16:47:56 38° S 16:49:52 14° ESE
NOSS 2-3 (D) 4.1 16:44:11 10° S 16:48:13 41° ESE 16:52:00 14° NE
Cosmos 1633 Rocket 3.5 16:44:47 10° N 16:48:58 39° ENE 16:53:06 10° SSE
H-2A R/B 2.8 16:46:39 10° S 16:50:29 82° WSW 16:54:19 10° NNW
Cosmos 1238 Rocket 4.3 16:47:23 10° NNW 16:51:17 39° W 16:54:32 10° SSW
Cosmos 2263 Rocket 3.7 16:49:01 10° N 16:52:21 16° NE 16:53:24 15° ENE
Cosmos 2369 3.8 16:47:24 10° S 16:52:57 60° ESE 16:58:34 10° NNE
SeaSat 1 2.6 16:48:59 10° SE 16:53:45 53° ENE 16:58:34 10° NNW
AQUARIUS 4.4 16:49:25 10° S 16:53:54 75° WSW 16:58:25 10° NNW
FengYun 1-2 T 4.4 16:49:26 10° SE 16:54:40 46° ENE 16:59:53 10° N
Cosmos 1891 Rocket 4.5 16:49:39 10° N 16:55:59 64° E 17:02:07 10° SSE
Cosmos 1464 Rocket 3.9 16:50:06 10° N 16:56:15 64° E 17:02:18 10° SSE
Envisat 3.0 16:51:27 10° SSE 16:56:27 60° ENE 17:01:28 10° N
Lacrosse 4 Rocket 1.2 16:52:31 10° SSW 16:56:36 80° ESE 17:00:16 12° NNE
NOAA 12 4.0 16:51:35 10° SSE 16:56:53 76° ENE 17:02:14 10° N
Cosmos 1607 4.4 16:51:36 10° NW 16:57:45 65° WSW 17:03:56 10° SSE
Sich 1 3.0 16:53:53 10° N 16:58:16 84° E 17:02:38 10° S
Cosmos 1151 Rocket 3.6 16:55:37 10° SSE 16:59:33 34° E 17:03:32 10° NNE
CZ-4 R/B 1.9 16:56:36 10° SE 17:00:26 37° ENE 17:04:12 10° N
GEOS 3 Rocket 3.6 16:56:59 10° NE 17:02:15 88° NW 17:07:32 10° SW
Cosmos 1666 Rocket 3.4 16:57:58 10° N 17:02:20 67° E 17:06:38 10° SSE
Cosmos 2082 3.6 16:57:08 10° NNW 17:02:46 77° ENE 17:08:23 10° SSE
COSMO-SKYMED 1 2.8 16:58:41 10° NNE 17:02:53 46° E 17:07:04 10° S
Cosmos 1328 Rocket 3.9 16:58:44 10° SSE 17:02:53 41° E 17:07:02 10° NNE
ATLAS 5 CENTAUR R/B 3.0 16:57:38 10° NW 17:03:29 63° WSW 17:10:06 10° SSE
ERBS 3.0 17:01:21 10° WSW 17:04:33 46° NW 17:06:38 19° NNE
Cosmos 1515 Rocket 4.4 17:01:11 10° SSE 17:04:53 27° E 17:06:25 22° ENE
Cosmos 1697 Rocket 2.6 17:00:03 10° SSW 17:05:39 71° ESE 17:11:18 10° NNE
Cosmos 1072 Rocket 4.4 17:00:12 10° N 17:06:22 83° E 17:12:34 10° S
Cosmos 1633 2.4 17:02:52 10° N 17:06:32 84° E 17:10:10 10° S
Cosmos 2360 4.4 17:02:11 10° S 17:07:37 48° ESE 17:12:10 15° NE
Cosmos 2278 3.7 17:06:15 10° S 17:11:51 63° ESE 17:17:00 12° NNE
Cosmos 1371 Rocket 4.2 17:12:17 10° N 17:17:17 46° ENE 17:22:14 10° SE
Cosmos 1933 4.2 17:20:20 10° SSE 17:23:15 31° ESE 17:23:15 31° ESE
Geosat 4.2 17:19:15 10° NNE 17:24:16 71° WNW 17:29:16 10° SW
NOSS 2-3 (C) 3.6 17:21:40 10° SW 17:25:59 86° WNW 17:28:59 24° NE
SKYMED 3 4.5 17:22:39 10° NNE 17:27:02 86° ESE 17:31:22 10° SSW
USA 116 4.3 17:23:10 12° NNE 17:27:28 58° E 17:32:33 10° S
YAOGAN 1 2.5 17:23:28 10° SSE 17:27:42 58° ENE 17:31:58 10° N
Cosmos 158 Rocket 4.1 17:23:43 10° S 17:28:50 51° ESE 17:31:19 28° NE
Cosmos 2112 Rocket 3.9 17:24:55 10° SSW 17:30:06 82° ESE 17:34:25 15° NNE
Cosmos 1862 3.8 17:28:52 10° NNW 17:32:47 59° W 17:36:43 10° S
Cosmos 1470 Rocket 3.5 17:28:59 10° N 17:33:28 65° E 17:37:54 10° SSE
Cosmos 2346 Rocket 4.4 17:27:40 10° S 17:33:53 74° E 17:40:04 10° NNE
Meteor 2-11 Rocket 4.4 17:28:34 10° N 17:34:44 88° E 17:40:53 10° S
YAOGAN 6 2.6 17:31:58 10° S 17:35:27 74° WSW 17:38:57 10° NNW
Cosmos 1680 Rocket 3.6 17:31:26 10° SSW 17:36:39 76° WNW 17:41:26 13° NNE
Ariane Rocket 3.8 17:40:34 33° NE 17:40:34 33° NE 17:44:08 10° N
ATLAS 3B R/B 4.4 17:36:33 10° NNW 17:39:59 14° NNE 17:41:17 14° NNE
NOAA 11 4.2 17:36:06 10° SSE 17:41:22 56° ENE 17:46:41 10° N
CSL-04 Debris 4.1 17:37:55 10° SSE 17:43:25 84° ENE 17:48:57 10° NNW
Meteor 1-25 Rocket 4.4 17:42:21 10° N 17:47:49 47° ENE 17:48:25 46° E
SKYMED 2 4.3 17:46:48 10° N 17:51:02 52° WNW 17:55:15 10° SSW
Meteor 1-20 Rocket 4.3 17:46:55 10° N 17:52:38 52° ENE 17:53:31 48° ESE
Cosmos 2034 Rocket 4.4 17:48:07 10° NNW 17:54:25 65° W 18:00:42 10° S
CSL-04 Rocket 3.8 17:53:04 10° S 17:58:25 74° WSW 18:03:45 10° NNW
SL-16 R/B 3.8 18:01:53 10° S 18:03:46 20° SSE 18:03:46 20° SSE
Cosmos 1624 Rocket 4.1 18:03:06 10° NNW 18:08:27 75° WSW 18:11:42 24° S
Cosmos 2056 Rocket 3.5 18:03:57 10° NNW 18:09:05 76° WSW 18:11:22 34° S
Cosmos 1980 Rocket 2.5 18:05:07 10° SW 18:10:45 65° WNW 18:13:25 32° N
SL-8 R/B 4.4 18:07:24 10° SW 18:11:01 42° S 18:11:01 42° S
Cosmos 1634 Rocket 3.8 18:07:35 10° N 18:13:49 80° E 18:19:59 10° S
USA 215 3.5 18:14:46 47° NE 18:15:11 47° NNE 18:21:23 10° NW
Cosmos 2322 Rocket 4.2 18:10:38 10° S 18:11:21 14° SSE 18:11:21 14° SSE
Tsikada Rocket 4.5 18:11:57 10° SSW 18:18:13 61° W 18:24:36 10° N
Cosmos 2228 Rocket 4.3 18:16:50 10° SSW 18:19:23 34° SSW 18:19:23 34° SSW
Cosmos 2142 Rocket 4.5 18:15:16 10° N 18:20:59 65° NE 18:20:59 65° NE
BREEZE-M DEB (TANK) 4.3 18:25:34 10° WNW 18:28:05 23° NW 18:28:05 23° NW
CZ-4 R/B 4.1 18:32:33 10° SW 18:35:33 19° W 18:38:31 10° NW
Lacrosse 4 Rocket 4.1 18:33:51 10° WNW 18:35:49 13° NW 18:36:37 13° NNW
Cosmos 2263 Rocket 3.0 18:31:33 10° NNW 18:35:08 41° NNW 18:35:08 41° NNW
CENTAUR R/B 4.2 19:06:00 10° NNW 19:10:25 30° N 19:10:25 30° N
